Snowfall_Accumulation
0.0 0.0 0.0 0.0 0.0 0.0 0.0 0.0 0.0 0.1 0.0 0.0 0.0 0.0 0.0 0.0 0.0 0.0 0.0 0.0 0.0 0.0 0.0 0.0 0.0 0.0 0.0 0.0 0.0 0.0 0.0 0.0 0.0 0.0 0.0 0.0 0.0 0.0
0.0 0.0 0.0 0.0 0.0 0.0 0.0 0.0 0.0 0.1 0.1 0.0 0.0 0.0 0.0 0.0 0.0 0.0 0.0 0.0 0.0 0.0 0.1 0.1 0.1 0.1 0.1 0.0 0.0 0.0 0.0 0.0 0.0 0.0 0.0 0.0 0.0 0.0
0.0 0.0 0.0 0.1 0.0 0.0 0.0 0.0 0.1 0.0 0.1 0.1 0.1 0.1 0.1 0.0 0.0 0.0 0.0 0.0 0.0 0.1 0.1 0.1 0.1 0.1 0.1 0.1 0.1 0.1 0.0 0.0 0.0 0.0 0.0 0.0 0.0 0.0
0.0 0.0 0.1 0.1 0.0 0.1 0.0 0.1 0.1 0.2 0.6 0.7 0.2 0.2 0.1 0.1 0.0 0.0 0.0 0.0 0.0 0.0 0.1 0.2 0.2 0.2 0.2 0.2 0.2 0.1 0.1 0.0 0.0 0.0 0.0 0.0 0.0 0.0
0.1 0.1 0.1 0.1 0.1 0.1 0.2 0.2 0.3 0.4 0.6 0.9 0.4 0.1 0.1 0.0 0.1 0.0 0.0 0.0 0.0 0.0 0.0 0.1 0.1 0.2 0.3 0.3 0.3 0.2 0.2 0.2 0.1 0.1 0.1 0.0 0.0 0.0
0.3 0.3 0.4 0.3 0.4 0.4 0.4 0.4 0.7 0.7 0.8 1.1 1.3 0.8 0.6 0.3 0.3 0.2 0.1 0.1 0.1 0.1 0.0 0.0 0.1 0.2 0.2 0.2 0.2 0.3 0.3 0.3 0.4 0.3 0.3 0.2 0.1 0.1
0.3 0.3 0.2 0.2 0.1 0.2 0.4 0.7 0.9 1.2 1.9 2.2 2.0 1.3 0.7 0.4 0.4 0.3 0.4 0.3 0.1 0.1 0.1 0.1 0.1 0.1 0.1 0.1 0.1 0.1 0.2 0.4 0.5 0.5 0.5 0.3 0.2 0.1
0.2 0.5 0.3 0.4 0.3 0.2 0.4 0.7 1.4 2.2 2.8 3.1 2.7 1.7 0.6 0.4 0.4 0.6 1.0 1.5 1.1 0.2 0.4 0.2 0.2 0.2 0.1 0.1 0.1 0.2 0.4 0.7 0.8 0.9 0.6 0.5 0.3 0.2
0.6 0.6 0.5 0.4 0.4 0.4 0.4 0.8 1.3 1.7 2.1 2.1 1.8 0.9 0.7 0.6 1.5 2.6 2.6 2.9 2.1 0.5 0.7 0.8 0.2 0.2 0.1 0.1 0.2 0.3 0.4 0.6 0.7 0.8 0.7 0.5 0.5 0.3
0.5 0.4 0.5 0.4 0.3 0.6 1.1 1.5 1.0 0.6 0.5 0.5 0.6 0.6 0.8 1.0 2.3 4.2 4.1 3.0 1.3 0.4 0.4 1.2 0.4 0.3 0.1 0.1 0.1 0.3 0.4 0.5 0.8 0.9 0.8 0.7 0.6 0.5
0.4 0.3 0.5 0.4 0.5 1.4 2.2 2.0 0.9 0.2 0.1 0.4 0.6 0.6 0.7 0.7 1.0 2.9 4.0 4.0 2.6 0.5 0.4 1.0 0.9 0.5 0.2 0.1 0.1 0.3 0.7 0.7 1.0 0.9 0.9 0.9 0.6 0.6
0.5 0.4 0.4 0.5 0.9 1.9 2.0 1.6 0.8 0.2 0.6 0.5 0.2 0.1 0.1 0.1 0.4 2.1 5.4 8.1 5.7 2.6 0.3 1.4 1.7 2.2 3.0 0.9 1.2 1.0 0.9 0.9 0.9 0.8 1.0 0.9 0.9 1.1
0.7 0.4 0.3 0.8 1.6 1.7 1.3 0.5 0.5 1.4 1.2 0.4 0.2 0.1 0.1 0.2 0.3 0.8 2.9 8.3 10.6 6.2 1.0 4.6 5.7 3.3 5.8 4.3 2.0 1.3 1.4 1.7 1.4 1.1 1.0 0.9 0.9 1.2
0.7 0.4 0.6 1.1 1.1 0.6 0.2 0.3 0.8 0.7 0.3 0.4 0.4 0.4 0.5 0.6 0.7 1.2 1.8 3.5 6.2 7.2 4.1 6.8 10.2 7.1 8.6 6.2 2.6 1.7 1.0 1.9 2.7 2.0 1.3 0.7 0.6 0.6
0.7 0.9 1.0 0.7 0.3 0.1 0.0 0.2 0.2 0.3 1.0 1.5 1.2 0.8 0.7 1.1 1.5 2.2 2.5 2.9 3.3 3.8 5.3 5.9 8.2 8.7 10.1 9.0 6.1 5.0 5.4 3.1 3.2 3.4 2.3 1.3 0.7 0.6
0.8 0.7 0.4 0.1 0.1 0.1 0.1 0.1 0.2 0.6 2.1 3.2 2.6 1.5 1.4 1.9 3.4 4.9 6.1 6.5 7.7 6.8 6.1 5.8 6.3 8.6 9.5 7.4 8.1 7.7 8.0 8.5 5.7 4.0 2.9 2.1 1.0 0.5
1.0 0.2 0.1 0.1 0.1 0.1 0.1 0.2 0.4 0.8 1.9 2.7 3.5 3.9 3.9 4.7 6.5 8.1 9.1 9.2 8.8 7.1 5.6 4.6 4.3 4.8 6.1 6.8 7.1 6.8 7.8 8.0 5.9 3.0 2.9 3.2 1.4 0.8
0.5 0.2 0.2 0.2 0.3 0.3 0.5 0.6 0.6 1.3 2.6 3.9 4.7 5.8 7.3 8.1 9.0 9.0 9.1 8.8 7.7 5.9 4.6 3.6 3.4 3.5 3.1 3.1 5.1 7.2 7.8 8.1 4.7 3.3 3.2 4.5 3.9 1.8
0.5 0.6 0.7 0.6 0.7 0.8 1.1 1.6 1.8 2.1 3.8 5.7 7.4 8.5 9.8 10.0 10.0 9.2 8.0 6.7 5.1 3.6 2.6 2.0 3.0 6.0 6.2 3.5 2.6 5.4 9.3 9.0 5.7 3.7 3.2 4.2 4.3 2.5
1.2 1.8 2.1 1.4 1.4 1.7 2.4 3.2 4.1 4.7 5.7 7.8 8.7 9.9 11.1 11.6 10.2 8.1 6.3 5.0 3.9 2.4 1.3 0.7 1.6 5.3 9.5 8.6 6.2 5.4 6.2 8.9 9.8 7.7 3.9 2.4 2.1 1.1
1.3 2.0 2.4 2.1 2.1 3.1 3.9 5.0 6.4 7.7 8.5 9.7 10.2 11.1 11.6 11.0 8.5 5.7 3.9 2.4 2.3 2.2 1.8 0.8 0.7 2.1 5.3 7.1 5.9 4.2 5.4 4.8 6.5 10.2 9.5 7.6 5.5 3.8
0.9 1.5 1.9 2.0 2.4 3.8 4.9 6.1 7.8 8.7 9.5 10.3 11.0 11.2 10.0 8.5 6.5 3.9 2.8 2.6 2.3 2.1 1.8 0.8 0.4 1.0 3.1 6.0 5.4 3.8 4.0 4.1 2.5 1.9 3.7 7.4 13.1 13.3
0.9 1.5 1.9 2.4 3.2 4.6 6.0 6.8 8.0 9.0 10.3 11.2 10.9 9.4 7.4 5.5 3.5 3.0 2.8 2.8 2.8 2.3 1.8 1.2 0.7 0.9 1.8 3.4 4.4 3.9 3.3 3.0 2.5 2.9 4.8 2.7 3.2 4.1